Theta_e
338 338 339 339 338 337 337 336 335 334 333 333 329 322 317 317 316 315 316 318 321 322 324 326 329 334 336 334 334 335 336 337 337 336 333 329 328 330 332 331 329 328 325 323 319 311 306 308 309 308 312 314 311 307 304 302 301 301 300 300 301 301 303 304 306 309 311 313 314 314 313 312 313 312 312 312 312 313 313 313 312 312 312 312 313
338 338 338 338 337 337 337 336 336 334 333 332 329 322 317 316 315 313 315 318 323 326 327 325 325 330 336 335 333 334 336 337 337 336 333 329 327 329 331 330 328 326 324 322 316 311 312 314 313 312 314 314 311 310 308 305 302 301 301 301 302 303 305 308 311 313 314 315 315 314 313 312 312 312 311 310 311 312 312 312 311 311 312 312 312
338 338 338 337 337 337 336 336 336 334 333 331 326 319 315 316 316 315 318 323 326 328 329 329 327 327 333 334 333 334 336 337 336 335 332 329 327 328 329 328 327 325 322 320 314 311 314 314 314 314 314 313 311 312 310 305 301 300 301 302 303 304 308 313 315 315 314 314 314 314 313 312 312 312 311 310 310 311 311 311 311 311 311 312 312
336 336 338 337 336 335 335 337 337 334 333 333 328 320 316 320 325 325 327 329 330 329 329 330 329 328 331 333 332 334 336 336 335 334 333 330 328 328 326 326 326 323 321 318 311 309 312 313 314 315 314 313 312 311 308 302 300 299 300 301 302 306 310 314 315 315 314 312 313 313 313 312 312 312 312 310 310 311 311 311 311 311 311 312 312
334 335 336 336 335 334 334 336 336 335 334 334 334 329 325 330 333 333 334 334 333 332 331 330 329 330 332 331 333 335 335 335 334 334 333 332 329 327 325 324 323 322 319 313 308 307 311 314 315 315 315 313 311 311 306 301 299 299 300 300 302 306 310 312 313 315 315 313 312 313 312 311 311 312 312 310 310 311 311 311 311 311 312 312 311
332 334 335 334 334 334 333 335 336 336 335 334 336 334 332 334 334 334 334 335 334 333 331 330 330 331 332 332 333 335 334 334 334 333 333 332 329 327 325 324 322 319 314 311 309 307 308 313 315 315 317 315 312 311 308 305 304 302 301 302 303 305 308 311 312 313 315 313 313 313 312 311 310 312 311 310 310 311 311 311 311 312 311 311 311
331 333 334 333 334 333 332 334 336 337 337 335 336 336 334 333 332 333 334 334 334 332 331 330 330 331 331 333 334 334 334 334 333 333 332 331 330 328 326 324 322 316 312 314 313 309 307 310 313 315 316 316 314 313 312 311 310 307 305 305 306 307 309 311 312 313 313 312 312 313 312 310 310 311 310 310 311 311 311 311 312 311 311 311 310
332 333 335 335 334 333 333 335 337 338 337 336 337 336 335 334 333 334 335 335 334 332 331 331 331 331 333 334 333 334 334 333 333 332 331 331 330 330 327 325 323 317 315 318 317 312 307 307 312 313 312 315 317 317 316 315 315 313 310 309 310 311 311 311 311 312 313 312 311 312 311 309 310 311 310 310 311 311 311 312 311 311 311 311 310
333 332 335 337 335 333 334 336 337 338 337 337 337 335 334 333 334 335 335 334 334 333 332 332 333 333 334 335 334 334 334 333 332 332 331 331 331 331 329 327 325 321 319 320 319 314 308 306 311 311 309 311 315 318 318 317 318 316 312 309 310 312 313 311 311 312 312 312 311 311 309 308 310 310 309 311 311 311 312 311 310 311 310 310 310
333 332 334 337 336 334 336 336 336 337 337 337 337 335 335 334 335 336 335 335 334 334 333 334 334 335 335 335 335 334 333 332 332 332 332 332 332 331 330 328 326 323 321 321 320 315 311 311 312 308 306 307 309 314 317 316 316 316 312 307 307 311 312 311 311 311 312 311 310 309 308 308 309 309 309 311 311 311 312 310 310 310 310 310 309
334 332 334 338 338 336 337 337 336 337 337 337 337 336 336 336 335 335 335 335 335 335 335 335 335 335 336 335 335 335 334 333 332 332 332 332 332 331 330 329 327 324 322 321 320 317 315 317 317 311 305 303 305 310 315 316 314 314 314 309 307 308 307 308 311 310 311 310 309 308 308 308 309 308 309 311 310 312 312 310 309 310 310 309 309
334 332 334 338 339 338 337 337 337 337 337 337 337 336 335 336 335 334 335 335 336 336 336 336 335 335 335 335 336 335 334 333 332 332 332 332 332 330 330 329 327 325 322 321 321 319 318 319 319 315 307 301 301 305 309 312 309 307 310 312 311 307 302 306 310 309 309 309 308 307 308 308 307 307 309 310 310 311 311 309 309 310 309 309 309
333 331 334 338 339 339 338 338 338 336 336 337 336 335 334 335 335 334 335 335 336 337 337 336 335 334 334 334 334 334 333 333 332 331 332 331 330 329 329 328 327 324 323 322 321 319 319 320 320 318 311 302 301 303 302 304 303 299 304 310 312 308 303 306 307 306 307 307 305 305 307 308 306 307 309 310 310 311 311 309 309 309 308 309 309
333 331 335 339 339 339 338 337 336 335 336 336 335 334 333 334 334 334 335 336 336 337 337 336 334 333 332 332 332 332 332 332 332 331 329 328 327 327 328 327 325 323 322 321 320 319 319 320 320 319 316 307 305 307 303 302 303 300 300 306 312 309 306 308 306 303 304 303 302 303 306 306 305 307 308 309 309 310 310 308 308 308 307 308 309
334 332 334 338 339 338 338 337 336 334 335 335 334 333 332 333 334 335 336 336 337 337 337 336 335 333 332 333 333 332 333 332 331 332 329 325 324 325 326 325 324 323 322 321 319 318 318 319 319 319 317 312 310 312 308 305 305 304 301 303 310 310 308 309 307 304 303 301 299 301 305 306 305 306 306 307 309 310 309 307 307 306 306 308 309
335 334 334 337 339 338 337 337 335 334 335 335 334 333 333 334 334 336 337 337 337 337 337 337 335 333 333 333 331 331 336 333 330 331 330 327 323 322 323 322 322 322 321 320 318 317 317 318 318 318 317 313 313 314 312 308 307 307 304 302 307 308 307 309 308 305 303 301 299 300 304 305 305 306 304 306 309 310 309 307 304 303 305 308 309
336 334 333 336 338 337 338 338 335 334 336 335 335 335 334 335 336 338 338 338 337 337 338 336 335 334 334 334 332 334 337 332 329 332 331 330 327 323 321 321 321 321 319 319 317 317 317 316 316 317 317 314 312 314 314 311 308 308 307 305 306 307 307 309 309 307 304 302 299 297 301 305 306 305 303 306 310 309 308 305 301 302 304 306 307
336 335 332 334 337 337 338 339 337 336 337 337 337 338 338 337 339 339 339 339 338 337 337 337 335 334 333 333 334 335 334 330 331 334 331 330 331 328 324 321 321 320 319 318 317 317 316 316 315 315 316 314 312 313 313 312 309 308 308 308 308 307 308 308 310 309 305 303 300 297 299 304 306 304 303 307 310 309 306 301 297 300 303 305 306
336 336 331 331 334 335 336 339 341 340 340 340 340 341 341 340 340 340 340 339 338 336 337 337 335 334 333 332 332 332 332 330 331 334 334 331 330 330 329 325 322 321 320 320 318 318 317 316 315 314 314 314 313 312 313 311 310 309 309 308 308 308 308 309 310 309 306 303 301 297 297 302 306 304 303 308 309 308 304 297 296 299 301 303 304
336 337 332 329 332 333 334 338 341 341 341 342 342 342 342 341 340 340 340 340 339 337 336 336 335 334 333 333 332 332 332 331 331 332 335 335 331 329 330 329 325 322 321 321 320 319 319 317 316 315 313 313 312 312 312 311 310 309 309 308 308 309 308 309 311 309 306 304 301 298 296 300 303 302 304 308 309 307 301 296 296 298 300 303 303
336 336 333 330 332 334 334 336 339 342 341 342 343 343 342 342 341 341 341 341 339 338 336 336 336 335 334 333 332 332 332 333 332 329 330 334 334 330 328 328 326 323 322 321 321 320 320 319 317 315 314 312 311 311 311 311 310 309 308 308 308 309 309 310 310 309 306 304 302 298 296 297 298 299 304 309 308 305 299 295 296 297 300 302 300
336 335 334 332 333 336 337 338 339 341 341 342 342 343 342 342 341 341 341 341 339 338 336 335 335 335 335 334 332 332 332 332 332 330 328 329 332 331 326 326 326 324 323 321 321 321 321 319 317 315 314 313 311 310 311 310 310 309 308 308 309 310 310 310 310 309 306 304 301 298 296 296 295 296 303 307 305 300 295 294 296 297 298 297 295
336 335 335 335 336 337 339 340 340 340 341 342 342 343 342 342 342 341 341 341 340 338 336 335 335 335 335 334 333 333 332 332 332 332 329 327 330 330 325 325 326 325 325 324 322 322 321 320 317 315 314 313 312 310 311 310 310 310 309 309 310 310 310 310 310 309 306 304 301 298 296 296 294 296 300 302 298 295 294 294 295 295 295 294 294
336 336 335 336 337 338 339 340 340 340 341 341 342 342 342 342 342 342 342 341 340 339 337 336 335 335 335 334 334 334 332 333 332 333 331 329 330 328 325 326 326 325 326 325 323 322 321 320 318 316 314 314 312 311 310 310 310 310 310 310 310 310 310 310 310 309 306 304 301 297 296 295 295 295 297 296 295 295 295 294 294 294 294 294 295
337 337 336 336 337 338 339 339 340 340 340 341 342 341 341 342 342 342 342 341 341 339 338 338 336 335 335 335 334 334 333 333 333 333 333 331 329 327 326 326 325 325 326 325 323 322 321 320 319 316 314 314 313 311 310 310 310 311 311 311 310 310 310 310 310 308 306 303 300 297 296 296 296 296 296 295 295 295 295 294 295 295 295 295 296
338 338 338 337 337 337 338 338 339 340 340 341 341 342 341 342 342 342 342 341 341 340 339 338 338 336 335 335 334 334 334 334 334 334 334 333 330 328 327 326 324 323 324 324 323 322 321 321 320 317 316 316 314 312 310 310 311 311 311 311 310 310 310 311 310 308 305 303 299 297 297 297 296 296 296 296 295 295 295 295 295 295 296 296 297
338 338 338 338 338 337 337 338 338 339 340 340 341 342 342 342 342 342 342 342 342 341 340 338 338 337 336 335 335 335 335 334 334 334 334 333 332 330 329 328 328 325 321 322 322 321 322 322 321 319 318 318 315 312 311 311 312 311 311 311 311 311 311 311 309 307 305 302 299 298 298 297 297 297 296 296 296 295 296 296 297 297 297 297 298
336 337 338 338 338 338 338 337 338 338 339 340 340 341 342 342 342 342 342 342 342 341 340 339 339 338 337 336 335 335 335 335 335 335 334 334 334 333 329 328 331 330 325 324 323 321 323 322 320 321 320 319 317 314 312 312 312 312 311 311 311 311 311 310 309 307 304 302 299 300 301 300 299 298 297 297 297 297 297 298 298 298 298 298 298
335 336 337 338 338 338 338 338 338 338 338 339 340 341 342 342 342 342 342 341 342 341 341 340 339 339 338 337 336 335 335 335 335 335 334 334 333 332 331 327 329 332 331 331 326 320 322 323 321 321 321 319 318 315 312 312 312 312 311 311 311 311 310 310 308 305 303 301 301 302 303 303 302 300 299 298 298 298 298 298 298 298 298 298 298
336 335 336 336 337 337 338 338 338 338 338 339 340 340 341 341 341 341 341 341 341 341 341 340 339 339 338 337 336 336 335 335 335 335 334 334 333 331 331 330 329 330 329 332 330 323 321 323 322 322 321 320 319 316 313 313 312 312 311 311 311 310 310 309 307 304 302 302 302 303 304 304 304 303 302 300 299 298 299 299 299 299 299 299 299
338 337 336 336 337 337 337 338 338 338 339 339 339 340 340 341 341 341 341 341 341 341 341 340 339 338 337 337 336 335 335 335 334 335 334 333 333 332 332 331 330 330 328 328 331 328 323 323 323 322 322 321 319 317 314 313 313 311 311 311 310 310 309 307 305 303 302 303 303 304 304 304 304 304 303 302 301 300 301 301 301 302 302 302 302
339 338 337 337 337 337 338 338 338 338 339 339 340 340 340 341 341 341 341 341 341 341 340 340 339 338 337 337 336 336 335 335 334 335 335 333 333 332 332 331 330 331 329 327 328 328 324 323 322 321 321 320 319 316 314 313 312 312 311 311 310 309 308 305 304 303 303 303 304 304 305 304 304 304 304 303 303 302 303 303 303 303 303 303 304
340 339 338 338 337 338 338 338 338 338 338 339 340 340 340 341 341 341 341 341 340 340 340 340 339 338 338 337 337 336 335 335 335 335 334 333 333 331 331 332 331 330 330 328 326 324 321 320 320 319 318 318 317 315 314 313 312 311 311 310 309 308 306 305 304 304 304 304 304 305 305 304 304 304 304 304 304 304 304 304 304 304 304 304 304
341 340 340 339 338 338 338 338 338 338 338 338 339 340 340 341 341 341 341 340 340 340 340 340 339 338 338 337 337 336 335 335 336 335 334 333 332 332 332 332 331 330 330 329 326 322 318 317 317 317 317 316 315 314 314 313 312 311 310 310 309 307 306 305 304 304 304 305 305 305 305 305 305 305 305 305 305 305 305 305 305 304 304 305 305
341 341 341 340 339 339 338 338 338 338 339 339 339 340 340 340 340 340 340 340 340 340 339 339 339 338 338 337 337 336 336 336 336 334 333 333 332 332 332 332 331 330 330 329 326 322 318 314 314 315 315 314 314 314 313 312 311 311 310 309 308 307 306 305 304 304 304 304 305 305 305 305 305 305 305 305 305 305 305 305 305 305 305 305 305
342 342 342 341 340 340 339 339 339 338 339 339 339 340 340 340 340 340 340 340 340 340 339 339 339 338 337 337 336 336 336 336 335 333 333 333 333 332 332 331 331 331 330 329 326 323 319 314 312 313 314 313 312 312 313 311 310 310 309 309 307 306 306 305 304 304 304 304 305 305 305 305 306 306 306 306 305 305 305 305 305 305 305 305 303
342 342 342 342 341 341 340 339 339 339 339 339 340 340 340 340 340 340 340 340 339 339 339 339 339 338 337 337 336 336 335 334 334 333 332 332 332 332 332 331 331 331 330 328 326 323 320 316 313 311 311 311 311 311 311 310 310 309 308 307 307 306 305 305 304 304 304 304 305 305 305 306 306 306 306 305 305 305 305 305 305 305 305 303 302
343 342 342 342 342 341 341 340 340 340 339 340 340 340 340 340 340 340 340 340 339 339 339 338 338 338 337 337 336 335 334 334 333 332 331 331 331 331 331 330 330 330 329 327 325 322 319 317 314 310 309 310 310 309 310 310 309 308 308 307 306 306 305 305 304 304 305 305 304 304 305 306 306 306 306 306 306 306 305 305 305 305 303 302 302
343 343 343 343 342 342 342 341 341 340 340 340 340 340 340 340 340 340 340 339 339 339 339 338 338 337 337 336 336 335 334 333 333 331 330 330 331 330 330 329 329 328 327 325 323 320 317 316 313 310 309 309 309 309 309 309 308 308 307 307 306 306 305 305 304 304 305 305 305 305 305 306 306 307 306 306 306 305 305 305 305 303 302 301 302
344 344 343 343 343 342 342 341 341 341 340 340 340 340 340 340 340 340 340 340 339 338 338 338 337 337 336 335 335 334 334 334 333 331 330 330 331 331 330 329 328 326 325 324 322 319 316 315 313 310 309 308 308 308 308 307 306 306 306 306 306 306 305 305 305 305 305 305 305 306 306 306 307 307 306 306 305 305 305 306 304 302 301 301 302
345 344 344 343 343 343 343 342 342 341 341 341 340 340 340 340 340 340 340 340 339 338 338 337 337 336 336 335 334 334 334 333 332 331 330 330 330 331 329 328 326 325 323 322 320 317 315 314 313 310 309 308 308 308 307 306 305 305 305 305 305 305 304 304 305 305 305 306 306 306 306 306 306 306 305 305 305 306 306 305 303 301 301 301 301
345 345 344 344 344 343 343 342 342 342 341 341 341 340 340 340 340 340 340 339 339 339 337 336 336 335 335 334 334 333 333 333 332 331 330 329 329 329 329 327 325 324 321 319 317 316 314 313 313 311 309 308 308 309 308 307 305 304 305 305 305 304 304 305 305 305 306 306 306 306 306 306 306 305 305 305 306 306 305 304 302 301 301 301 301
345 345 345 344 344 344 343 343 342 342 341 341 341 341 340 340 340 340 340 339 339 338 338 337 336 335 334 334 333 333 332 332 332 331 330 329 329 328 327 327 326 324 322 319 316 314 313 313 313 312 310 309 310 311 309 307 305 304 304 305 304 304 305 305 306 306 306 307 307 307 307 306 305 305 305 306 306 305 303 303 302 302 301 301 301
346 345 345 344 344 344 343 343 342 342 342 342 341 341 341 340 340 340 340 339 339 338 337 337 336 334 333 332 332 332 332 332 331 331 330 329 329 328 327 326 325 324 323 321 319 315 313 312 312 312 311 311 311 310 309 307 305 305 305 305 305 305 306 306 306 306 306 307 308 308 307 306 305 305 305 306 305 304 303 302 302 302 302 302 301
346 346 345 344 344 344 343 343 343 342 342 342 341 341 341 340 340 340 340 339 339 338 337 336 336 335 334 332 331 331 331 331 331 330 330 329 328 327 326 325 324 323 322 321 319 316 313 312 312 312 312 312 311 310 309 307 306 306 305 305 306 306 306 306 306 305 305 306 307 307 306 305 305 305 306 306 304 304 303 302 303 303 302 302 301
346 346 345 345 344 344 344 343 343 342 342 342 342 341 341 341 340 340 339 339 338 338 337 336 336 335 334 332 331 331 331 331 330 330 329 328 327 326 325 324 322 321 319 317 314 313 312 311 311 311 311 311 311 310 309 307 307 307 306 306 306 306 306 306 306 305 306 307 307 306 305 305 306 306 305 305 304 303 303 302 303 303 302 302 302
346 346 346 345 345 344 344 343 343 343 342 342 342 342 341 341 340 339 339 339 338 337 337 336 336 336 334 332 331 331 331 330 330 329 328 327 326 324 323 322 320 319 317 315 312 311 311 311 311 311 311 311 310 309 308 308 307 307 307 306 306 306 307 307 306 306 307 307 306 305 305 306 306 305 305 305 304 303 302 303 303 303 303 302 301
345 346 346 345 345 344 344 344 343 342 342 342 342 342 341 340 340 339 338 338 338 337 336 336 336 335 334 333 331 331 331 330 330 329 327 326 325 323 322 320 318 317 315 314 312 311 311 311 311 311 310 309 308 307 308 308 307 307 307 306 306 306 307 306 306 306 305 305 305 305 306 306 305 305 305 304 304 303 302 303 303 303 303 302 301
339 342 345 346 346 344 344 343 343 342 342 342 342 342 341 340 339 338 337 338 338 337 336 335 335 335 334 332 331 331 331 330 330 328 327 325 324 322 320 318 316 314 313 312 311 311 311 311 310 309 307 307 307 307 308 308 307 307 307 306 306 307 306 305 305 304 303 303 304 305 305 306 305 305 305 304 303 302 303 303 303 304 304 303 302
334 336 338 341 344 345 345 344 343 343 342 342 342 342 341 340 339 338 337 337 337 336 335 335 334 334 334 332 331 331 331 330 330 328 326 325 323 321 319 317 314 312 311 310 310 310 309 309 308 307 307 307 307 307 307 307 307 307 307 307 307 306 306 305 303 302 302 303 304 305 305 305 305 305 304 303 302 303 303 304 304 304 304 304 302
333 333 333 334 338 342 344 344 344 343 343 342 342 342 341 340 339 338 336 336 336 336 335 334 333 332 332 331 330 330 331 331 330 328 326 324 322 320 318 316 313 311 311 310 309 309 309 308 308 308 307 307 307 307 307 307 307 307 307 307 307 306 306 304 301 301 302 303 302 304 305 305 305 304 303 303 303 304 303 304 304 304 304 304 302
Wind_Speed
22 21 19 18 16 13 12 12 11 11 12 13 14 15 16 15 14 14 13 13 13 12 13 13 13 13 14 13 12 12 12 12 11 11 10 9 8 8 8 6 5 4 3 3 2 3 5 6 6 6 7 8 7 6 7 8 8 9 9 10 10 10 11 11 11 11 11 11 11 10 10 10 10 10 10 9 9 9 9 9 9 9 8 9 8
21 21 20 18 17 14 13 13 12 11 12 13 14 16 16 15 14 14 14 13 13 12 12 14 15 16 16 15 14 14 14 14 12 11 11 10 8 8 8 6 6 5 4 3 3 4 7 7 6 7 7 7 7 6 6 7 8 8 8 8 8 9 9 10 10 10 10 9 8 8 9 9 9 9 10 9 9 9 8 8 8 8 8 8 8
22 22 22 20 18 15 14 15 14 11 11 11 12 15 15 14 13 13 13 12 13 13 13 15 17 19 19 17 16 16 16 15 13 12 12 11 10 9 7 6 6 5 4 4 4 5 7 7 7 7 7 7 7 6 6 6 6 6 6 6 7 7 8 8 8 8 8 8 7 7 7 8 8 9 9 10 9 9 8 8 8 8 8 8 8
23 23 23 22 20 16 15 16 14 11 10 9 10 12 13 13 12 12 12 12 13 15 15 16 19 21 21 19 17 17 17 16 14 12 12 12 11 9 7 6 6 5 5 4 4 6 7 7 7 7 7 7 7 6 6 6 6 6 5 6 6 7 7 6 6 6 6 6 7 6 6 7 8 8 9 10 9 9 8 8 8 8 8 8 8
24 22 23 23 21 17 17 17 15 13 11 10 10 10 12 13 12 12 13 15 16 16 15 16 18 22 22 20 19 19 18 16 14 13 12 13 12 10 7 6 6 6 6 4 5 6 7 8 8 8 7 7 7 7 6 6 6 5 5 6 7 6 6 5 5 5 4 5 6 6 6 8 8 8 9 9 9 8 8 8 8 8 8 8 8
23 21 22 24 22 19 18 18 17 15 14 12 12 12 13 14 14 15 16 16 16 14 14 15 18 22 22 21 20 20 19 16 14 13 13 13 12 10 8 7 6 7 7 5 5 5 6 8 8 8 8 7 7 7 6 6 5 4 5 5 6 6 5 4 4 4 4 5 6 6 7 8 9 8 8 9 8 8 8 7 7 7 7 7 7
23 21 21 23 24 21 20 20 18 17 17 15 15 15 15 16 17 17 16 15 14 15 17 16 18 22 22 21 21 21 19 16 15 14 14 13 12 11 9 7 6 7 7 6 5 5 6 8 8 8 8 7 7 6 6 5 4 2 2 3 4 4 5 3 3 4 4 5 6 6 7 8 9 8 8 8 7 7 7 7 7 7 7 7 8
23 22 22 22 23 22 22 22 18 16 17 17 16 16 17 18 17 16 16 16 16 18 19 19 20 21 21 21 21 21 19 17 16 15 15 14 12 12 11 9 7 7 8 7 5 5 6 7 8 8 8 7 7 6 6 5 4 3 1 1 1 2 3 3 3 3 4 5 6 6 7 8 8 7 7 7 6 7 7 6 7 7 7 8 8
24 23 23 22 22 22 21 22 19 16 16 16 15 15 17 19 16 14 15 16 17 18 20 20 20 21 21 21 20 21 20 18 18 16 15 14 14 14 13 12 9 9 9 7 6 6 6 6 7 7 7 7 7 7 7 6 6 5 3 2 1 1 2 3 3 4 4 5 6 6 8 8 7 7 7 6 6 6 6 6 7 7 7 8 8
26 25 25 23 22 22 21 21 22 19 17 17 17 17 18 20 17 15 15 15 17 18 18 19 20 21 21 20 19 20 19 19 19 18 17 16 15 15 15 14 13 12 11 10 9 8 7 6 6 6 7 7 7 8 8 7 7 6 5 3 1 2 3 4 4 4 4 5 6 7 8 7 6 6 6 6 6 6 6 6 7 7 7 8 8
27 26 27 25 23 24 22 22 23 21 20 19 20 20 20 20 18 16 15 14 15 16 16 17 18 19 20 19 19 20 19 17 18 20 20 19 18 18 18 17 15 14 13 12 10 9 8 6 5 6 7 8 7 7 8 8 7 7 7 5 3 3 4 4 4 4 4 5 6 7 7 6 6 7 6 5 5 5 5 6 6 6 7 7 8
27 28 30 26 24 25 23 23 24 23 23 23 24 23 22 22 19 17 16 14 14 15 15 16 17 17 17 18 18 18 17 16 16 17 20 21 21 20 19 18 17 16 14 13 11 10 9 8 7 5 6 8 7 7 8 9 8 7 8 7 6 5 5 4 4 5 5 6 7 7 7 6 7 7 5 5 5 5 5 6 6 6 7 7 7
27 30 33 28 26 26 25 25 25 24 25 26 26 25 24 23 21 18 16 15 16 15 16 17 17 13 11 13 14 15 16 15 14 13 16 20 21 20 20 20 20 18 16 14 13 12 11 10 9 7 6 7 7 7 8 9 8 8 8 8 9 8 6 5 5 6 6 7 8 8 7 7 8 6 5 4 5 5 5 6 6 6 6 7 7
27 31 35 30 27 28 27 27 26 26 27 26 27 27 25 24 23 20 16 16 16 17 18 18 16 14 11 8 7 10 12 13 13 12 13 17 18 19 21 22 22 20 18 17 15 14 13 12 11 8 7 9 9 8 9 10 9 9 10 9 9 10 8 7 7 7 7 9 10 9 8 9 9 7 5 4 5 5 5 6 5 6 6 6 7
28 31 36 33 30 31 30 28 28 28 28 28 29 28 27 26 25 23 19 17 16 17 20 19 16 15 12 6 3 5 7 10 13 13 13 15 18 19 20 22 21 20 20 18 16 15 15 13 13 12 9 10 12 10 10 11 10 10 11 11 10 11 9 9 9 8 9 11 12 10 8 10 9 7 6 5 5 5 5 6 6 6 6 6 7
30 31 36 36 32 32 32 30 30 30 30 31 31 29 28 27 27 25 22 19 17 18 21 21 20 17 10 3 2 3 3 7 13 16 15 15 18 19 20 20 20 20 19 18 16 16 16 16 15 15 12 11 12 13 12 12 11 11 13 13 12 11 10 10 10 10 10 11 13 12 9 10 9 9 8 5 5 5 6 6 6 6 5 6 7
32 32 36 38 34 34 34 31 31 31 31 32 32 30 29 29 28 26 25 23 21 20 22 23 23 22 16 7 3 2 3 5 7 13 18 18 18 20 20 19 19 19 19 19 18 17 18 18 18 17 16 14 13 14 14 14 13 13 15 15 14 13 12 12 12 11 11 12 15 14 11 10 9 10 8 5 5 5 6 7 7 6 5 6 7
34 33 36 39 36 35 36 33 32 33 33 33 33 31 31 31 29 28 27 26 23 21 24 26 23 24 23 15 8 4 3 6 4 4 13 19 20 20 21 21 21 21 21 20 20 21 20 20 20 20 19 18 17 16 17 17 16 16 16 16 16 15 14 13 12 12 11 13 15 15 12 9 9 10 8 5 5 6 8 8 7 6 6 6 7
36 35 35 39 38 37 38 35 33 34 34 34 34 33 32 32 30 29 27 26 26 24 25 28 24 24 26 21 12 6 4 8 6 2 3 10 18 21 21 22 23 24 24 23 23 23 23 22 22 22 21 21 20 19 19 19 18 17 17 17 18 17 16 14 13 12 12 13 15 15 13 10 9 9 7 5 6 8 9 9 7 6 6 6 7
38 37 36 38 38 37 39 38 36 35 35 35 35 34 33 32 30 29 28 27 28 27 27 29 27 26 28 25 17 9 7 8 9 8 4 2 9 15 19 21 23 26 26 26 26 25 25 25 24 23 22 22 22 21 21 20 19 17 17 17 18 19 17 15 14 14 13 14 15 15 13 11 10 9 7 5 6 9 10 9 7 7 6 7 8
39 39 37 38 38 38 39 39 38 37 36 35 35 35 33 33 31 30 30 29 29 29 28 30 31 29 27 27 23 16 12 10 11 12 7 3 4 6 12 16 18 26 30 28 28 28 27 27 26 25 23 22 23 23 23 22 20 18 17 17 18 19 19 17 16 15 13 13 14 14 13 11 11 10 7 6 8 10 10 8 7 7 7 7 8
40 40 39 39 39 39 39 40 39 38 37 36 36 36 35 34 33 32 31 31 30 31 30 31 32 31 29 28 26 21 15 11 12 14 9 6 5 4 11 14 13 22 30 32 32 31 29 29 28 27 26 24 24 25 25 24 21 19 17 16 18 19 19 18 17 15 13 13 14 14 13 11 10 9 7 8 10 10 10 8 8 7 7 7 7
41 41 40 40 40 41 40 40 39 38 38 37 36 36 36 35 34 33 33 32 31 31 31 31 31 32 31 29 29 27 23 17 17 18 13 7 5 4 10 17 16 20 26 30 34 33 31 29 29 29 28 27 27 27 27 26 23 20 17 16 17 19 20 19 18 15 12 13 13 14 12 10 9 9 8 10 11 10 9 8 8 8 8 7 7
41 42 42 42 42 42 42 41 40 39 39 38 37 37 36 36 35 34 34 33 32 32 32 32 31 32 32 32 32 32 30 27 23 22 19 15 12 7 9 14 14 19 25 25 28 32 32 30 30 29 29 28 28 29 28 27 25 22 18 17 18 19 20 20 18 14 12 13 13 13 11 8 8 9 10 11 11 10 9 9 9 8 8 8 8
41 43 44 44 43 43 43 42 41 41 40 38 38 37 37 36 36 36 35 34 34 33 34 34 33 33 33 33 33 32 33 32 28 24 22 21 16 10 11 13 10 15 23 23 22 25 29 32 31 30 29 28 28 29 29 28 26 23 20 18 19 20 21 21 18 14 12 12 11 11 9 7 8 9 10 10 10 10 9 9 9 9 9 8 9
43 44 45 44 44 44 43 43 41 40 40 39 38 38 37 37 37 37 37 36 35 35 35 34 34 35 34 33 34 35 35 34 31 27 24 22 20 15 11 10 10 12 15 18 19 18 22 29 32 31 30 29 28 29 29 28 26 23 20 19 20 21 21 20 17 14 12 10 10 8 6 6 7 8 9 9 9 9 9 9 9 9 9 9 10
44 44 43 44 45 44 43 43 42 40 40 40 39 38 38 37 37 37 37 37 36 36 36 35 35 36 35 34 34 35 36 35 33 31 29 26 24 22 16 8 6 8 8 12 15 18 21 24 27 32 32 28 27 28 28 27 24 22 21 20 21 22 21 19 16 13 11 9 9 6 4 5 6 7 8 8 9 9 9 9 9 9 10 10 10
41 41 42 43 44 44 43 43 42 41 40 40 40 39 39 38 38 38 38 37 37 37 37 36 36 36 36 35 34 34 35 35 34 32 31 29 26 25 23 16 8 4 4 6 8 14 22 21 20 28 32 30 28 28 28 27 24 23 22 22 23 22 20 17 15 13 10 9 8 5 3 5 6 7 8 8 9 9 9 9 10 10 10 10 10
41 40 41 43 44 43 43 42 42 42 41 40 40 40 39 39 39 38 38 38 37 37 37 37 37 37 36 36 35 35 34 34 34 32 30 29 26 24 24 23 17 7 3 5 5 10 17 21 21 22 27 30 29 28 29 28 25 23 23 24 23 21 18 16 14 12 10 9 8 5 4 5 6 7 8 9 9 9 10 11 11 11 12 12 11
41 40 40 42 43 43 43 42 42 42 42 41 41 40 40 40 39 39 39 38 37 37 38 38 37 36 36 36 36 36 35 34 34 33 31 29 28 26 24 24 22 16 9 5 6 10 14 19 22 22 23 27 29 29 30 29 25 23 24 25 23 20 17 14 12 11 11 10 8 6 6 6 7 7 8 9 10 10 11 11 11 12 12 13 13
41 40 40 41 42 43 43 42 41 41 41 42 41 40 40 40 40 39 39 38 38 38 38 38 37 36 36 36 36 36 36 35 33 33 33 32 30 29 26 24 24 23 19 11 5 8 12 15 18 21 23 26 28 30 30 28 25 23 24 24 21 17 15 12 11 11 11 9 8 7 7 8 8 8 8 9 9 9 10 10 11 12 13 14 16
41 40 40 41 42 43 43 43 42 41 41 41 41 41 40 40 40 40 39 39 39 38 38 38 37 36 36 36 37 37 36 35 34 33 33 33 32 30 28 27 26 24 23 17 8 8 13 14 14 17 21 25 27 30 31 29 25 24 24 22 18 15 13 11 11 11 9 8 7 7 8 9 9 9 9 8 8 9 10 11 13 14 16 17 19
40 40 40 41 42 43 42 42 42 42 42 41 41 41 41 40 39 39 39 39 39 38 37 37 37 37 37 37 37 37 36 35 34 34 33 32 31 30 29 29 28 26 24 21 14 10 13 14 14 15 19 24 27 29 31 30 27 25 24 20 17 14 12 11 11 10 9 7 7 8 8 8 9 9 10 10 9 10 11 13 14 16 18 19 21
39 40 41 42 41 41 42 42 42 42 42 42 41 41 42 41 40 39 39 39 40 38 37 37 38 37 37 37 37 37 36 36 35 33 33 32 31 30 29 29 29 28 26 23 18 13 12 13 14 15 18 23 26 28 31 31 28 27 24 21 17 14 13 12 11 10 10 9 8 8 8 8 9 10 11 11 11 11 13 15 16 17 18 21 24
40 40 41 41 41 41 41 41 42 41 42 42 42 43 43 42 41 40 40 40 40 39 38 38 38 37 36 37 37 37 35 35 34 33 32 32 31 31 30 30 29 28 26 24 21 17 15 14 15 17 19 23 26 27 29 29 28 27 24 19 17 15 15 13 11 11 11 11 10 9 9 9 10 11 12 12 12 12 13 15 15 16 20 23 23
39 40 40 40 39 39 40 41 41 42 43 43 43 43 43 42 41 41 40 41 41 41 40 40 39 38 38 38 38 36 35 35 34 34 33 32 32 33 32 31 30 29 27 25 23 20 17 16 16 19 21 24 26 26 27 27 26 24 21 17 16 16 15 12 11 11 11 12 13 12 11 11 12 12 13 14 13 13 14 14 14 18 22 22 19
38 39 38 38 39 39 40 42 42 43 44 43 43 43 43 42 41 41 41 41 41 41 41 41 40 39 39 39 38 36 35 35 35 35 34 33 33 33 33 32 31 29 27 25 24 22 20 19 19 19 21 23 23 23 25 27 25 22 19 17 17 17 14 13 13 12 11 12 14 14 13 13 13 14 15 14 13 14 14 13 16 20 21 18 18
38 38 38 39 40 40 42 43 43 43 43 43 42 42 43 42 41 41 41 41 41 41 41 41 41 41 40 40 39 37 37 37 37 36 35 34 33 33 32 31 31 29 26 25 24 23 21 21 20 20 22 23 21 20 24 26 24 22 20 19 19 18 15 14 14 13 12 13 14 14 14 14 15 17 16 14 13 13 13 14 17 19 17 16 17
38 38 39 39 40 42 43 42 42 42 42 41 41 41 41 42 42 41 41 41 41 41 41 41 41 41 41 40 39 39 39 39 39 37 36 35 33 32 31 30 29 28 26 25 25 23 22 21 20 21 23 24 22 21 22 23 21 20 21 21 21 20 17 16 15 15 15 15 15 14 14 14 16 16 15 13 12 12 13 15 16 15 15 16 16
38 39 40 40 41 42 42 42 42 42 40 40 40 41 42 42 42 42 42 41 40 40 40 40 40 41 41 40 40 40 41 41 40 38 37 36 34 32 31 29 28 28 27 26 25 24 22 22 21 21 23 24 23 20 20 21 20 20 20 22 22 21 19 18 16 15 14 13 12 12 12 12 11 11 11 11 11 12 13 13 12 12 14 16 16
39 40 40 40 41 41 42 42 42 40 40 41 42 43 43 42 42 42 41 40 40 39 39 39 39 41 41 40 41 41 41 41 40 38 36 36 35 33 31 30 29 28 27 26 25 24 22 21 21 21 21 23 24 22 20 21 23 21 20 21 20 18 17 15 13 11 10 10 10 9 8 7 7 8 8 9 10 11 10 10 10 11 12 14 15
40 39 39 39 40 40 41 42 41 40 40 42 45 46 45 44 43 41 40 40 40 39 38 37 38 40 40 41 42 42 41 40 39 37 35 35 34 33 32 31 31 29 28 27 26 25 23 22 22 22 21 21 25 26 24 23 23 21 20 20 19 15 13 12 11 10 10 10 9 8 7 8 9 9 8 8 9 7 7 9 10 10 10 13 15
40 40 39 39 40 41 42 42 41 41 42 44 47 48 47 46 44 41 40 39 39 39 38 38 38 39 39 40 41 41 41 40 39 37 35 35 34 32 31 31 31 31 30 29 28 26 25 24 23 24 24 23 26 28 26 23 22 20 20 20 18 16 14 12 9 8 10 10 9 10 11 11 11 10 9 9 8 6 7 10 10 8 10 14 15
39 39 39 40 41 42 42 42 42 42 44 46 48 48 48 48 47 44 41 39 38 38 39 39 38 38 38 39 40 41 41 40 39 37 36 35 35 33 31 30 31 31 31 31 30 29 28 27 25 25 26 26 26 28 27 24 23 21 20 19 18 17 16 14 11 9 9 10 10 11 12 12 11 11 11 8 7 7 8 10 8 8 10 14 14
39 39 39 41 42 42 42 41 42 44 45 47 48 48 49 49 49 46 42 39 38 38 38 39 38 38 38 38 38 40 40 39 38 37 36 35 34 32 30 30 30 31 31 31 32 31 31 31 30 28 28 27 27 28 28 26 24 23 21 19 18 17 16 15 14 12 10 9 10 11 13 14 12 11 9 6 6 7 9 9 9 10 11 14 15
37 38 40 41 41 42 43 43 43 44 46 47 47 48 49 49 49 49 45 40 38 38 39 39 39 39 39 39 39 39 39 39 38 36 36 35 33 31 30 30 31 31 31 31 31 32 32 33 32 30 29 28 27 26 27 27 26 25 24 22 20 19 18 16 14 12 10 10 10 10 11 11 8 7 7 5 6 9 8 8 8 9 10 15 16
39 40 41 42 43 44 44 43 43 44 46 47 47 47 49 49 49 49 46 41 38 39 39 40 41 41 41 40 40 40 40 39 38 37 36 34 32 30 30 31 31 31 31 31 31 31 32 32 32 30 28 27 27 25 25 27 27 24 23 23 21 20 18 15 13 12 11 11 10 8 7 7 5 5 5 6 9 9 6 6 7 8 11 15 15
38 41 42 42 43 44 44 44 43 44 46 47 47 47 48 48 47 48 46 42 39 38 39 40 41 42 42 41 41 41 41 40 39 38 36 34 32 31 31 32 32 31 31 31 30 30 30 30 29 27 26 25 25 24 24 26 26 25 23 21 20 19 16 13 12 12 11 10 9 8 6 6 6 6 6 8 10 9 5 5 7 9 13 15 14
32 35 39 42 43 43 43 44 44 43 44 45 46 47 47 46 46 46 45 42 40 39 39 39 41 42 42 42 42 41 41 40 39 37 36 34 33 32 32 32 31 30 30 30 29 29 28 27 27 26 25 24 23 24 24 24 25 26 25 22 21 20 17 13 12 12 12 10 9 8 7 7 7 7 8 10 10 8 5 6 9 11 15 16 14
35 35 35 36 39 43 44 45 44 44 44 45 45 46 46 45 45 46 44 41 39 38 38 38 40 42 43 43 43 43 43 41 40 38 36 35 34 33 33 32 31 31 31 30 29 28 26 25 24 24 23 23 23 24 24 25 26 28 27 25 24 22 19 15 13 12 11 12 11 9 8 8 7 7 9 9 9 7 6 7 11 14 16 17 15
39 39 36 33 34 37 40 43 44 44 43 42 42 43 44 45 45 45 43 40 38 38 37 36 37 39 41 42 44 45 44 43 41 39 38 36 35 35 35 34 33 33 34 32 30 29 27 25 24 23 22 21 22 22 23 25 26 28 28 26 24 22 19 17 15 10 6 9 12 13 11 9 7 6 6 6 6 6 8 11 14 16 17 16 14
Wind_Direction
198 202 206 208 210 215 219 225 228 229 225 220 218 218 217 213 212 213 216 218 218 215 216 221 221 217 219 221 220 215 205 196 192 193 190 188 181 173 174 192 213 202 182 174 170 153 137 131 128 123 124 123 115 107 111 117 116 116 114 109 103 94 87 76 66 56 48 44 43 42 38 34 32 30 28 25 23 22 22 21 20 19 19 18 17
199 203 207 211 212 215 224 229 231 231 225 219 213 215 217 214 214 216 217 222 226 227 227 231 231 222 219 224 225 215 205 198 194 197 195 191 188 180 180 198 212 198 188 186 177 156 142 138 135 129 129 128 125 122 123 126 124 122 120 113 105 93 80 65 54 46 41 39 36 34 31 29 28 25 23 21 19 18 17 16 15 14 15 15 11
203 208 211 214 214 217 228 232 232 231 222 211 203 208 212 210 214 214 217 228 236 241 243 243 237 226 219 223 225 213 204 198 192 195 197 193 193 191 187 195 209 206 200 197 182 161 150 146 145 138 135 133 131 132 136 135 132 131 126 118 105 91 75 59 50 47 44 40 32 26 24 21 19 17 15 14 13 11 10 9 11 10 12 13 9
203 211 215 215 214 217 229 232 232 229 217 204 196 201 202 203 210 213 224 240 247 253 257 253 239 223 215 218 219 208 203 197 190 195 197 194 194 196 193 195 211 217 210 204 185 167 160 155 151 146 142 139 137 138 141 136 133 129 121 112 98 84 70 59 51 44 37 33 28 22 18 13 10 8 6 8 8 8 7 7 9 9 10 11 9
201 210 216 216 213 216 229 232 232 230 222 211 207 206 200 203 214 225 239 249 256 259 253 245 230 214 208 212 210 203 201 196 193 193 194 195 196 197 196 200 213 212 207 204 185 173 167 161 156 154 151 150 147 145 143 135 130 123 112 96 84 80 72 60 50 41 25 17 16 14 10 6 5 2 0 3 5 6 7 7 8 10 11 12 11
201 209 214 214 211 214 227 233 235 235 230 224 223 217 209 213 223 237 251 255 255 245 229 221 212 204 203 206 205 200 198 197 195 191 191 197 198 200 201 202 211 204 199 197 186 181 176 169 165 163 162 164 160 158 155 142 132 121 109 94 82 75 68 54 35 28 13 0 359 358 359 358 359 358 357 1 5 5 5 8 8 9 10 10 10
204 208 209 210 212 216 224 231 236 236 231 229 229 224 218 222 232 240 242 236 228 214 206 202 196 198 201 201 199 197 197 197 196 192 193 199 202 207 210 207 210 203 199 200 195 192 189 182 175 172 172 175 174 172 170 159 152 141 106 88 68 47 41 26 7 6 357 349 351 349 347 350 354 354 355 359 4 4 4 8 9 9 9 7 7
204 208 208 211 215 216 222 227 230 228 224 224 223 222 222 227 231 228 216 204 199 195 194 192 189 192 196 195 195 197 197 195 196 198 199 204 210 215 218 215 212 212 209 207 204 199 195 190 187 187 182 180 182 186 187 183 187 200 211 48 18 359 355 341 337 340 337 337 343 344 339 344 350 350 353 357 0 3 5 10 9 8 7 6 6
204 209 211 216 215 213 218 223 223 218 214 215 213 216 223 225 219 209 204 197 189 186 186 188 188 189 190 193 195 198 199 195 195 202 205 208 216 222 225 222 217 219 219 217 215 207 200 195 197 201 197 192 191 193 197 198 201 211 226 230 233 266 291 308 317 319 320 326 333 333 332 338 342 343 351 353 355 2 4 7 7 5 5 5 7
208 212 212 218 216 211 215 219 221 217 212 213 214 215 221 223 215 201 201 201 192 186 186 188 187 187 189 194 197 198 200 200 199 203 208 213 222 229 229 225 221 221 218 218 221 211 200 197 206 218 216 209 203 199 203 206 206 212 228 241 229 246 272 287 298 309 310 313 322 325 327 332 333 338 348 349 351 1 1 3 5 3 3 3 6
213 214 212 217 215 211 214 217 220 219 214 215 217 217 217 219 219 205 197 201 201 196 191 190 189 190 193 194 197 198 199 201 204 210 216 222 228 231 229 226 226 226 219 216 220 215 207 210 224 235 230 222 215 207 208 214 218 220 231 249 257 259 276 287 285 294 301 305 313 319 323 324 324 334 344 343 348 356 353 357 2 359 359 0 4
217 215 211 215 215 211 213 217 220 219 213 214 218 219 216 217 220 211 198 195 198 200 196 192 189 190 195 197 198 200 200 204 212 220 225 228 231 231 228 226 226 229 225 221 225 225 225 230 232 237 234 225 218 213 214 219 229 231 230 238 244 256 274 282 277 285 295 302 308 314 317 315 318 328 335 336 344 350 346 351 357 353 354 359 2
217 213 209 213 214 211 212 216 220 218 212 214 218 219 219 219 220 215 206 197 195 197 196 189 181 178 189 199 202 203 206 213 223 228 229 230 231 228 224 221 223 227 227 227 230 227 229 234 230 230 236 223 212 213 216 221 233 233 225 227 234 247 262 267 281 296 300 302 308 312 310 308 314 323 327 330 339 342 338 345 352 348 349 356 358
216 211 208 211 213 211 211 215 218 215 214 217 218 219 220 220 219 216 212 209 206 201 194 186 178 173 174 178 195 207 212 219 223 224 225 228 227 223 219 218 219 221 222 225 229 227 229 235 231 230 235 221 212 216 218 220 229 229 223 224 230 244 253 257 276 300 306 307 312 313 306 305 311 317 317 322 334 333 329 340 345 340 345 352 354
217 213 210 210 212 212 210 213 216 214 215 217 216 219 220 219 219 220 215 210 209 205 199 194 185 172 162 161 183 200 224 229 224 220 217 220 221 220 221 221 220 218 218 222 228 231 233 238 238 237 238 226 220 226 227 224 227 228 227 226 230 241 248 251 267 294 309 313 316 314 303 302 309 311 310 314 329 327 321 332 336 332 341 348 348
218 216 212 210 212 212 210 212 214 213 215 216 215 218 220 219 219 221 217 205 200 202 202 200 194 179 157 121 131 146 235 235 224 223 217 214 217 218 223 226 223 219 219 225 233 239 240 240 240 239 241 237 230 233 235 232 233 232 231 229 233 242 248 250 262 286 308 316 318 314 303 301 306 305 307 313 320 318 315 323 327 327 337 341 342
218 216 212 210 212 212 210 211 212 213 215 216 217 220 221 221 221 222 218 211 204 201 202 202 202 197 183 156 130 161 234 212 211 226 223 218 216 217 222 227 228 227 227 232 238 241 243 242 240 238 238 239 237 237 237 235 234 234 234 232 236 245 251 252 259 280 303 315 317 313 303 298 300 300 304 310 313 308 308 317 321 324 333 337 338
217 216 212 211 213 213 210 210 211 212 214 217 220 223 223 223 223 222 220 218 213 202 199 202 205 205 198 191 190 193 191 173 160 232 227 223 222 220 222 224 229 233 234 236 239 239 240 243 243 240 238 237 236 235 233 232 232 234 237 237 240 247 252 254 258 275 295 311 317 312 300 294 294 295 299 303 304 301 304 314 320 322 328 332 334
216 216 214 212 213 214 211 211 212 212 214 218 221 224 224 223 223 223 221 219 215 206 201 200 203 209 208 207 206 194 178 181 177 168 210 225 225 223 225 227 229 233 235 237 240 241 241 242 244 245 244 240 238 236 232 230 230 232 236 238 241 246 252 255 258 270 288 308 317 312 299 289 288 290 294 298 298 296 304 315 318 318 325 328 328
216 215 214 213 213 214 213 213 213 214 216 218 221 224 225 224 224 223 222 220 218 215 209 201 201 207 210 212 213 208 200 205 212 205 167 190 224 223 226 229 232 233 236 239 240 243 245 244 244 245 248 246 242 241 237 233 231 232 237 239 239 245 250 253 256 264 282 304 314 311 298 285 283 286 288 293 292 295 303 312 312 314 323 325 323
214 213 213 212 213 214 214 214 215 216 217 219 221 223 224 224 223 221 221 222 222 222 217 210 207 208 208 211 216 218 220 228 230 218 196 184 212 220 218 221 232 234 234 236 239 243 246 246 245 244 247 249 247 245 242 239 236 238 244 245 242 244 248 250 254 260 277 300 311 309 297 284 281 283 282 286 287 292 301 307 308 311 317 318 316
211 211 212 211 212 213 214 215 216 217 218 219 219 221 223 224 223 222 222 224 224 222 221 220 217 215 211 210 212 216 221 226 222 213 206 205 212 222 210 205 222 233 231 232 236 241 243 243 243 241 242 245 246 245 243 241 240 241 247 250 247 245 248 250 251 257 276 298 309 307 296 285 283 281 278 280 283 290 298 302 303 306 308 309 312
208 209 210 210 211 212 213 215 216 217 218 219 219 219 222 224 224 223 223 225 226 224 223 223 222 220 217 214 212 214 215 216 215 209 202 198 203 222 217 212 221 233 234 234 236 238 241 241 240 239 240 241 241 242 242 240 239 242 247 251 250 248 248 249 249 256 276 294 306 305 294 284 284 282 278 281 286 293 297 297 298 301 304 306 310
206 207 209 210 210 211 213 214 215 217 218 219 219 219 221 223 224 224 224 225 226 226 225 224 222 220 219 218 218 218 219 221 221 216 211 209 207 210 217 215 224 237 240 240 240 238 238 239 240 239 241 242 240 239 239 238 237 240 243 245 247 249 247 246 246 254 273 292 303 301 291 286 287 284 283 286 290 293 293 295 298 300 303 303 302
204 206 208 209 210 211 212 214 215 217 219 219 220 220 220 221 223 224 225 225 225 226 226 226 225 223 223 223 222 223 224 225 225 223 222 218 214 215 220 215 218 235 239 242 244 243 240 238 239 240 242 243 240 236 235 235 237 239 240 241 244 246 245 242 243 253 272 291 301 298 293 294 292 288 288 290 291 292 292 295 298 299 300 297 296
204 206 207 208 210 212 213 214 216 217 218 219 220 220 221 221 222 224 224 225 225 226 227 228 228 227 227 227 226 227 228 229 228 227 226 223 219 220 221 217 223 234 239 242 241 242 241 239 238 237 240 243 239 233 232 234 238 238 238 242 244 243 242 239 242 255 273 289 293 291 299 309 306 299 295 294 292 292 292 295 298 299 298 296 297
206 206 207 208 210 212 214 215 216 217 218 219 219 219 220 221 221 223 224 225 225 225 226 227 227 228 229 230 230 230 230 230 230 230 230 230 230 231 225 209 223 243 245 244 241 239 240 241 238 234 235 240 238 233 233 236 240 239 238 242 244 241 238 237 245 260 273 281 279 279 310 326 325 321 314 307 300 296 296 297 299 300 299 299 304
207 207 207 208 210 212 214 216 217 217 218 219 219 219 219 220 221 222 223 224 224 225 226 226 227 229 230 231 230 231 232 231 231 233 233 233 236 238 232 217 211 235 243 243 247 243 241 239 236 234 233 235 236 233 233 237 241 240 238 241 241 237 234 237 250 264 271 269 262 263 311 334 339 338 329 320 310 304 301 302 303 304 304 303 305
208 208 208 209 211 213 214 215 216 218 219 219 219 219 218 219 220 222 222 222 222 224 226 227 228 230 231 231 230 231 233 232 232 233 234 233 233 235 234 226 220 214 210 234 237 233 235 233 233 235 233 231 232 232 231 235 240 240 238 239 237 231 231 239 253 266 271 262 250 253 290 319 332 336 333 326 318 313 311 311 311 311 308 303 298
209 210 210 211 212 214 215 215 215 217 218 219 219 218 218 219 221 222 223 222 221 222 225 226 228 229 229 230 231 232 233 232 232 233 231 231 231 231 233 232 229 225 217 226 239 229 227 229 233 236 234 230 228 229 231 233 236 238 239 237 233 227 229 241 256 270 271 258 247 255 276 292 304 316 327 329 325 321 319 318 318 318 315 309 303
209 210 211 212 213 214 215 215 215 216 217 218 219 219 218 219 220 221 222 222 221 221 223 225 226 227 227 228 230 231 232 232 232 231 231 231 231 232 234 234 233 232 227 221 239 244 233 233 238 239 238 234 228 226 228 230 232 235 236 233 228 226 230 242 259 270 270 257 249 257 270 281 288 297 312 324 328 326 325 325 324 321 318 315 313
210 210 211 213 213 214 215 214 214 215 216 217 217 218 218 219 219 220 221 221 221 220 221 223 224 225 226 227 228 230 231 231 230 231 231 231 233 235 236 234 232 233 230 222 222 250 247 246 250 246 240 235 228 224 224 226 227 231 231 227 224 227 233 244 258 264 264 256 251 259 268 277 284 289 296 306 321 328 328 326 323 321 319 319 319
210 209 211 213 214 214 214 214 214 214 215 215 216 216 217 218 219 219 219 219 220 220 220 222 223 223 225 226 228 229 229 230 231 232 231 232 235 235 234 234 232 230 229 223 222 239 246 245 249 248 239 232 226 223 222 222 222 223 221 219 221 230 237 245 253 253 252 255 260 266 273 280 283 286 287 290 305 321 325 324 325 325 324 323 322
211 210 211 213 214 214 215 215 215 214 214 215 215 215 216 218 218 218 218 218 218 219 219 221 222 222 223 225 227 228 229 230 232 233 232 232 232 231 229 230 231 231 230 226 223 225 228 233 239 239 235 228 223 220 220 220 219 217 214 214 221 230 239 247 250 247 251 259 265 270 279 287 286 287 287 287 298 314 322 326 328 327 326 326 326
213 213 213 213 214 214 215 216 217 216 215 215 215 215 216 217 217 217 217 217 218 218 218 220 222 221 222 223 226 226 226 228 231 232 232 231 229 228 227 227 229 231 232 229 225 221 216 220 227 227 227 224 221 220 218 217 216 213 212 219 227 233 240 247 249 251 255 259 263 270 278 286 289 289 289 288 294 305 316 324 326 324 326 328 331
214 215 215 215 215 215 215 216 217 217 216 215 215 216 217 218 218 217 217 217 218 219 220 221 222 221 221 222 224 225 224 226 229 229 230 229 228 228 228 229 230 232 233 229 227 224 215 211 215 220 222 219 217 217 213 209 210 212 215 224 230 233 239 246 252 258 261 261 262 265 272 284 291 290 290 290 290 297 310 319 319 320 326 330 332
216 216 215 215 215 215 216 217 217 217 217 216 215 216 217 218 219 219 218 218 219 220 221 222 222 222 222 222 223 223 222 224 225 227 229 230 230 230 231 231 232 232 233 230 227 226 220 213 209 210 213 212 209 209 207 203 204 209 217 225 229 231 236 244 253 260 263 262 260 261 269 281 288 289 291 290 289 294 304 311 314 320 326 329 331
218 217 216 216 216 217 218 219 218 218 218 217 216 217 218 218 219 220 220 220 220 220 221 222 222 223 223 223 223 222 221 222 223 225 228 230 230 231 231 232 232 230 228 226 225 225 224 220 210 202 202 204 201 201 204 204 206 210 215 222 226 229 233 242 251 257 262 264 265 266 269 277 285 288 289 288 286 290 298 307 315 321 326 327 330
218 217 218 217 218 219 220 220 220 220 219 218 218 218 218 218 219 220 221 220 220 221 222 222 222 223 224 224 223 222 221 222 222 225 228 230 231 232 233 233 231 226 222 221 221 221 221 217 208 199 197 198 198 198 201 205 213 219 219 219 221 224 228 239 248 254 260 265 268 268 269 277 283 284 283 279 279 286 298 307 314 321 325 325 329
218 219 219 218 218 219 220 221 221 220 219 219 219 219 219 219 219 220 221 220 220 220 221 222 222 223 224 224 223 223 223 224 225 227 230 231 231 232 233 232 228 222 219 218 218 219 217 210 204 199 194 193 195 197 198 201 208 216 218 219 222 224 227 235 243 248 252 257 263 265 270 277 279 282 281 274 278 293 301 305 311 321 328 325 325
220 220 220 220 219 219 219 220 220 220 219 219 221 221 220 219 219 220 220 220 219 219 220 221 222 223 223 223 223 223 224 226 228 231 234 234 232 231 229 226 222 220 219 218 218 215 211 205 201 197 192 192 194 195 197 200 205 210 213 216 223 225 224 229 233 233 239 249 257 264 272 274 279 290 286 281 294 302 296 296 307 323 337 333 327
221 221 221 221 220 219 220 219 219 218 218 220 222 223 222 220 219 220 220 220 219 218 218 219 221 222 223 223 224 224 224 226 229 233 235 234 233 232 230 225 222 220 218 216 216 213 208 203 200 194 190 193 197 199 202 205 207 210 208 210 215 215 211 219 227 231 241 251 255 258 261 268 283 289 287 295 305 291 278 301 312 320 340 340 333
222 221 221 220 220 221 221 220 219 218 218 221 223 224 224 222 220 220 220 220 219 217 217 217 219 221 222 222 223 224 224 225 228 232 234 234 234 233 233 232 230 227 222 218 217 214 210 208 205 198 194 196 201 204 205 204 203 205 205 205 207 205 203 210 221 234 242 244 247 255 262 273 284 283 281 293 290 267 289 319 317 309 331 340 337
222 221 220 220 221 222 222 222 221 220 221 223 224 224 225 224 222 221 220 220 218 217 217 217 218 220 221 221 221 222 224 225 227 230 232 234 235 235 236 237 235 233 232 231 227 220 214 211 208 203 201 202 203 205 205 203 201 202 203 204 205 206 207 210 216 228 236 236 243 259 269 277 282 283 284 277 262 276 315 332 321 299 315 335 339
221 220 221 221 222 222 222 223 223 222 223 224 224 224 225 225 224 222 220 220 219 217 217 216 218 220 221 220 220 221 223 224 226 229 230 231 233 233 236 238 236 234 236 237 236 232 225 219 212 209 210 210 209 209 208 206 203 202 203 203 206 209 210 214 224 230 231 235 246 262 274 279 280 282 278 258 261 305 330 337 317 295 308 336 344
221 220 220 221 222 222 222 223 224 224 225 225 225 225 226 226 224 222 220 220 220 219 218 217 217 219 221 220 218 219 222 223 224 226 226 227 228 228 230 232 232 231 231 231 232 232 231 226 221 220 220 219 220 220 213 207 206 208 206 206 208 210 212 219 230 231 227 236 251 265 276 279 273 258 250 252 295 322 330 325 309 298 321 344 351
222 222 221 220 220 221 222 222 223 225 226 226 225 225 226 227 225 222 220 220 220 220 219 218 217 218 221 221 219 219 220 221 222 223 223 223 224 224 224 225 227 227 227 228 229 229 229 228 228 229 230 229 231 228 218 211 213 217 217 215 215 212 212 217 224 228 230 237 248 257 266 270 253 229 240 281 310 319 318 315 314 318 337 350 358
227 223 222 221 221 221 221 221 222 225 227 227 225 226 227 226 225 221 218 218 220 220 219 218 217 217 219 220 218 218 220 220 221 221 221 222 222 221 220 222 223 224 226 227 228 228 229 229 230 234 236 236 234 228 219 215 217 219 217 212 208 204 203 206 216 228 233 234 238 242 253 265 253 244 270 304 314 314 308 313 322 330 340 349 358
247 237 227 222 221 221 221 220 220 223 227 228 226 226 227 226 223 219 216 217 219 220 220 218 216 216 218 219 217 217 219 220 220 220 220 221 221 219 218 218 218 220 222 222 222 223 224 227 230 233 235 234 229 224 220 218 217 215 207 196 193 195 196 199 215 231 231 226 225 230 242 251 247 261 292 308 313 309 304 318 328 334 338 341 347
249 252 248 237 227 223 221 221 221 222 226 228 227 227 227 225 222 217 215 215 218 220 219 218 216 216 217 218 217 216 217 219 220 219 219 219 219 217 216 214 213 215 216 216 215 216 216 219 223 227 227 226 224 220 219 217 214 211 206 200 197 196 198 205 218 229 232 230 226 222 225 228 233 266 295 308 309 298 294 319 329 332 335 335 340
236 242 250 252 246 236 228 223 222 222 225 228 228 227 227 226 222 217 213 213 216 219 218 217 216 216 216 217 217 216 217 219 219 218 219 219 219 218 216 213 211 213 214 213 212 212 211 211 213 216 215 214 214 213 211 210 208 210 212 211 205 201 203 213 216 212 223 237 231 220 215 219 236 264 285 305 312 301 305 322 328 328 330 332 340